SCP
0 0 0 0 0 -0 -0 -0 -0 -0 -0 0 0 0 0 0 0 0 0 0 0 0 0 0 0 -0 0 -0 -0 -0 -0 -0
0 0 0 -0 -0 -0 -0 -0 -0 0 0 0 -0 -0 -0 0 0 0 0 0 0 0 0 -0 -0 -0 0 -0 -0 0 -0 -0
-0 -0 -0 -0 -0 -0 -0 -0 0 -0 -0 -0 0 -0 0 0 0 0 0 0 0 0 0 0 -0 0 0 0 0 0 -0 0
-0 -0 -0 -0 -0 -0 0 0 -0 0 0 0 0 0 0 0 0 0 0 0 0 0 0 -0 0 0 0 0 0 0 0 0
-0 -0 -0 0 0 0 0 -0 -0 0 0 0 0 0 0 0 0 0 0 0 0 0 0 0 0 0 0 0 0 0 0 0
-0 -0 0 0 0 0 0 0 0 0 0 0 0 0 0 0 0 0 0 0 0 0 0 0 0 0 0 0 0 0 0 0
-0 -0 0 0 0 0 0 0 0 0 0 0 0 0 0 0 0 0 0 0 0 0 0 0 0 0 0 0 0 0 0 0
-0 -0 -0 0 0 0 0 0 0 0 0 0 0 0 0 0 0 0 0 0 0 0 0 0 0 0 0 0 0 0 0 0
-0 -0 -0 0 0 0 0 0 0 0 0 0 1 1 0 0 0 0 0 0 0 0 0 0 0 0 0 0 0 0 0 0
-0 0 0 0 0 0 0 0 0 0 0 0 0 0 0 0 0 0 0 0 0 0 0 0 0 0 0 0 0 0 0 0
-0 0 0 0 0 0 0 0 0 0 0 0 0 0 0 0 0 0 0 0 0 0 0 0 0 0 0 0 0 0 0 0
0 0 0 0 0 0 0 0 0 0 0 0 0 0 0 0 0 0 0 0 0 0 0 0 0 0 0 0 0 0 0 0
0 0 0 0 0 0 0 0 0 0 0 0 0 0 0 0 0 0 0 0 0 0 0 0 0 0 0 0 0 0 0 0
0 0 0 0 0 0 0 0 0 0 0 0 0 0 0 0 0 0 0 0 0 0 0 0 0 0 0 0 0 0 0 0
0 0 0 0 0 0 0 0 0 0 0 0 0 0 0 0 0 0 0 0 0 0 0 0 0 0 0 0 0 0 0 0
0 0 0 0 0 0 0 0 0 0 0 0 0 0 0 0 0 0 0 0 0 0 0 0 0 0 0 0 0 0 0 0
0 0 0 0 0 0 0 0 0 0 0 0 0 0 0 0 0 0 0 0 0 0 0 0 0 0 0 0 0 0 0 0
0 0 0 0 0 0 0 0 0 0 0 0 0 0 0 0 0 0 0 0 0 0 0 0 0 0 0 0 0 0 0 0
0 0 0 0 0 0 0 0 0 0 0 0 0 0 0 0 0 0 0 0 0 0 0 0 0 0 0 0 0 0 0 0
0 0 0 0 0 0 0 0 0 0 0 0 0 0 0 0 0 0 0 0 0 0 0 0 0 0 0 0 0 0 0 0
Wind_Speed_500mb
34 34 32 25 21 19 18 16 13 12 10 11 12 12 11 11 10 12 13 14 13 11 11 14 22 29 36 41 40 37 37 25
32 29 29 23 20 19 16 15 12 12 11 13 14 12 9 9 6 3 4 5 5 7 10 14 19 31 37 41 34 37 34 24
32 29 25 22 15 14 14 15 15 12 13 16 22 11 9 11 12 4 3 5 8 11 13 16 24 31 33 41 34 31 28 27
28 24 25 26 14 18 16 17 12 12 12 12 8 7 1 1 10 11 12 15 14 22 22 20 25 22 24 32 28 33 29 26
24 26 23 19 17 17 15 12 11 10 11 14 12 5 9 1 3 12 13 23 15 21 22 20 23 26 26 27 32 31 29 27
22 21 22 20 20 17 20 15 12 10 2 2 6 2 6 8 4 3 17 19 24 21 23 27 28 30 31 29 29 30 29 30
25 23 23 26 26 24 20 17 12 5 8 14 14 11 15 14 29 38 22 25 23 28 29 28 32 33 29 30 29 31 30 28
29 29 28 28 27 25 19 16 6 5 12 19 23 20 23 28 23 14 19 23 25 26 28 31 32 28 31 33 34 35 33 31
35 36 34 32 26 20 12 2 20 20 14 20 19 19 25 22 14 18 21 26 34 28 27 27 29 34 35 35 36 35 37 36
35 33 33 33 28 11 20 35 36 25 4 11 6 1 7 13 13 23 29 32 32 33 27 30 31 35 40 38 38 41 40 40
35 32 31 31 17 11 14 13 10 3 10 10 5 4 8 10 12 15 22 21 25 27 27 32 37 42 45 41 44 51 44 44
32 28 26 18 3 5 9 14 11 10 7 6 3 7 10 8 13 18 23 23 28 30 34 37 38 45 49 46 50 43 45 46
30 25 17 12 10 10 11 9 7 8 4 2 10 12 12 19 14 21 27 30 33 36 41 42 42 44 45 45 42 44 37 38
30 23 19 18 14 14 13 8 8 7 3 17 13 15 14 18 23 27 30 35 37 39 39 42 38 36 39 42 48 49 38 37
28 25 25 23 20 11 8 5 4 3 6 7 14 18 21 25 30 33 36 38 39 41 39 34 36 35 31 37 49 47 55 49
30 31 26 18 17 16 15 7 3 2 7 11 18 22 27 31 35 38 38 37 39 38 32 28 34 35 36 36 40 46 55 62
35 29 22 21 20 15 10 9 6 3 8 16 21 24 28 30 31 35 36 37 36 35 33 32 31 34 36 39 36 40 42 48
34 29 25 22 19 18 13 5 4 4 12 16 19 23 25 27 31 34 35 33 31 29 26 26 26 30 30 29 33 40 43 43
33 31 26 23 21 15 8 8 9 9 14 16 21 22 24 28 34 33 31 26 24 27 27 38 33 25 28 29 31 35 37 40
34 33 30 27 21 16 3 3 9 6 13 16 17 21 25 30 30 30 25 21 25 24 30 26 26 28 24 28 29 35 35 40
Wind_Direction_500mb
147 141 145 151 156 157 159 160 154 147 138 129 126 115 111 116 117 118 103 93 85 74 62 32 20 15 14 13 22 17 17 356
139 139 144 148 162 161 163 159 151 141 131 125 107 97 84 87 68 119 108 65 28 8 355 357 359 2 357 360 19 9 350 354
132 131 137 136 134 150 162 161 155 131 112 106 81 72 51 23 307 281 277 310 327 338 343 348 7 356 345 350 3 342 354 347
132 138 140 114 118 116 128 112 117 121 120 112 96 145 201 50 344 328 321 313 322 334 338 359 353 334 330 332 331 335 338 340
133 142 137 127 138 123 117 121 110 131 131 124 215 139 222 96 353 347 330 316 333 318 320 322 327 334 326 330 329 333 324 322
139 143 137 127 112 116 121 123 104 85 142 137 258 240 236 239 174 267 324 310 306 311 314 318 323 328 326 328 326 325 317 319
141 142 138 130 127 120 120 100 127 160 194 221 225 243 271 284 296 271 283 297 303 307 308 309 316 319 317 320 321 320 312 313
144 141 133 126 134 137 117 101 43 330 313 286 266 265 284 301 306 292 279 301 300 300 305 316 317 313 323 318 318 313 307 307
145 138 138 131 125 116 77 1 308 346 328 290 256 252 272 293 317 307 276 262 290 307 306 314 313 317 312 312 313 308 301 303
151 152 146 145 132 138 273 272 289 305 315 75 78 142 246 240 293 257 273 294 299 300 318 315 312 311 311 310 310 307 299 295
163 162 167 174 197 313 299 296 280 208 30 25 1 319 291 280 295 294 308 316 309 312 308 313 311 312 312 304 303 303 298 295
169 168 176 198 237 99 90 117 112 99 88 8 21 339 317 320 306 310 326 315 310 303 308 308 305 309 306 300 308 301 299 300
176 173 174 163 150 139 130 128 126 94 65 342 338 325 338 326 315 315 315 311 309 308 306 304 304 306 303 304 304 306 303 302
174 177 163 157 155 158 152 145 149 141 20 326 336 337 339 331 317 315 309 309 308 306 304 300 301 307 305 305 310 308 302 308
172 168 162 161 168 160 156 181 331 65 344 330 322 333 329 322 315 311 307 307 305 303 302 296 300 302 304 305 309 309 308 304
166 164 165 162 145 161 148 138 97 18 346 313 327 320 319 316 313 311 307 304 303 304 300 291 301 299 302 300 303 303 308 311
164 163 158 147 144 137 138 126 84 345 333 332 329 320 319 316 314 305 299 301 295 292 288 288 290 296 300 304 306 306 306 305
164 157 151 144 150 168 173 162 83 9 340 340 328 324 320 318 317 313 306 299 294 288 282 283 280 294 301 306 306 307 306 307
164 162 157 149 143 140 114 72 38 12 357 339 333 323 323 321 321 316 311 299 285 271 268 266 286 296 300 302 299 302 300 297
170 168 166 159 153 135 96 356 340 338 341 335 325 324 324 320 319 317 310 289 279 271 285 296 293 297 301 294 299 300 299 296
Wind_Speed_850mb
34 34 32 25 21 19 18 16 13 12 10 11 12 12 11 11 10 12 13 14 13 11 11 14 22 29 36 41 40 37 37 25
32 29 29 23 20 19 16 15 12 12 11 13 14 12 9 9 6 3 4 5 5 7 10 14 19 31 37 41 34 37 34 24
32 29 25 22 15 14 14 15 15 12 13 16 22 11 9 11 12 4 3 5 8 11 13 16 24 31 33 41 34 31 28 27
28 24 25 26 14 18 16 17 12 12 12 12 8 7 1 1 10 11 12 15 14 22 22 20 25 22 24 32 28 33 29 26
24 26 23 19 17 17 15 12 11 10 11 14 12 5 9 1 3 12 13 23 15 21 22 20 23 26 26 27 32 31 29 27
22 21 22 20 20 17 20 15 12 10 2 2 6 2 6 8 4 3 17 19 24 21 23 27 28 30 31 29 29 30 29 30
25 23 23 26 26 24 20 17 12 5 8 14 14 11 15 14 29 38 22 25 23 28 29 28 32 33 29 30 29 31 30 28
29 29 28 28 27 25 19 16 6 5 12 19 23 20 23 28 23 14 19 23 25 26 28 31 32 28 31 33 34 35 33 31
35 36 34 32 26 20 12 2 20 20 14 20 19 19 25 22 14 18 21 26 34 28 27 27 29 34 35 35 36 35 37 36
35 33 33 33 28 11 20 35 36 25 4 11 6 1 7 13 13 23 29 32 32 33 27 30 31 35 40 38 38 41 40 40
35 32 31 31 17 11 14 13 10 3 10 10 5 4 8 10 12 15 22 21 25 27 27 32 37 42 45 41 44 51 44 44
32 28 26 18 3 5 9 14 11 10 7 6 3 7 10 8 13 18 23 23 28 30 34 37 38 45 49 46 50 43 45 46
30 25 17 12 10 10 11 9 7 8 4 2 10 12 12 19 14 21 27 30 33 36 41 42 42 44 45 45 42 44 37 38
30 23 19 18 14 14 13 8 8 7 3 17 13 15 14 18 23 27 30 35 37 39 39 42 38 36 39 42 48 49 38 37
28 25 25 23 20 11 8 5 4 3 6 7 14 18 21 25 30 33 36 38 39 41 39 34 36 35 31 37 49 47 55 49
30 31 26 18 17 16 15 7 3 2 7 11 18 22 27 31 35 38 38 37 39 38 32 28 34 35 36 36 40 46 55 62
35 29 22 21 20 15 10 9 6 3 8 16 21 24 28 30 31 35 36 37 36 35 33 32 31 34 36 39 36 40 42 48
34 29 25 22 19 18 13 5 4 4 12 16 19 23 25 27 31 34 35 33 31 29 26 26 26 30 30 29 33 40 43 43
33 31 26 23 21 15 8 8 9 9 14 16 21 22 24 28 34 33 31 26 24 27 27 38 33 25 28 29 31 35 37 40
34 33 30 27 21 16 3 3 9 6 13 16 17 21 25 30 30 30 25 21 25 24 30 26 26 28 24 28 29 35 35 40
Wind_Direction_850mb
147 141 145 151 156 157 159 160 154 147 138 129 126 115 111 116 117 118 103 93 85 74 62 32 20 15 14 13 22 17 17 356
139 139 144 148 162 161 163 159 151 141 131 125 107 97 84 87 68 119 108 65 28 8 355 357 359 2 357 360 19 9 350 354
132 131 137 136 134 150 162 161 155 131 112 106 81 72 51 23 307 281 277 310 327 338 343 348 7 356 345 350 3 342 354 347
132 138 140 114 118 116 128 112 117 121 120 112 96 145 201 50 344 328 321 313 322 334 338 359 353 334 330 332 331 335 338 340
133 142 137 127 138 123 117 121 110 131 131 124 215 139 222 96 353 347 330 316 333 318 320 322 327 334 326 330 329 333 324 322
139 143 137 127 112 116 121 123 104 85 142 137 258 240 236 239 174 267 324 310 306 311 314 318 323 328 326 328 326 325 317 319
141 142 138 130 127 120 120 100 127 160 194 221 225 243 271 284 296 271 283 297 303 307 308 309 316 319 317 320 321 320 312 313
144 141 133 126 134 137 117 101 43 330 313 286 266 265 284 301 306 292 279 301 300 300 305 316 317 313 323 318 318 313 307 307
145 138 138 131 125 116 77 1 308 346 328 290 256 252 272 293 317 307 276 262 290 307 306 314 313 317 312 312 313 308 301 303
151 152 146 145 132 138 273 272 289 305 315 75 78 142 246 240 293 257 273 294 299 300 318 315 312 311 311 310 310 307 299 295
163 162 167 174 197 313 299 296 280 208 30 25 1 319 291 280 295 294 308 316 309 312 308 313 311 312 312 304 303 303 298 295
169 168 176 198 237 99 90 117 112 99 88 8 21 339 317 320 306 310 326 315 310 303 308 308 305 309 306 300 308 301 299 300
176 173 174 163 150 139 130 128 126 94 65 342 338 325 338 326 315 315 315 311 309 308 306 304 304 306 303 304 304 306 303 302
174 177 163 157 155 158 152 145 149 141 20 326 336 337 339 331 317 315 309 309 308 306 304 300 301 307 305 305 310 308 302 308
172 168 162 161 168 160 156 181 331 65 344 330 322 333 329 322 315 311 307 307 305 303 302 296 300 302 304 305 309 309 308 304
166 164 165 162 145 161 148 138 97 18 346 313 327 320 319 316 313 311 307 304 303 304 300 291 301 299 302 300 303 303 308 311
164 163 158 147 144 137 138 126 84 345 333 332 329 320 319 316 314 305 299 301 295 292 288 288 290 296 300 304 306 306 306 305
164 157 151 144 150 168 173 162 83 9 340 340 328 324 320 318 317 313 306 299 294 288 282 283 280 294 301 306 306 307 306 307
164 162 157 149 143 140 114 72 38 12 357 339 333 323 323 321 321 316 311 299 285 271 268 266 286 296 300 302 299 302 300 297
170 168 166 159 153 135 96 356 340 338 341 335 325 324 324 320 319 317 310 289 279 271 285 296 293 297 301 294 299 300 299 296